Time,TemperatureF,DewpointF,PressureIn,WindDirection,WindDirectionDegrees,WindSpeedMPH,WindSpeedGustMPH,Humidity,HourlyPrecipIn,Conditions,Clouds,dailyrainin,SoftwareType,DateUTC
2013-09-02 00:11:00,59.0,57.0,-100.00,North,-999,-999.0,-999.0,92,-99.99,,,-99.99,,2013-09-02 07:11:00,
2013-09-02 00:21:00,59.0,56.0,-100.00,North,-999,-999.0,-999.0,92,-99.99,,,-99.99,,2013-09-02 07:21:00,
2013-09-02 00:42:00,59.0,56.0,-100.00,North,-999,-999.0,-999.0,92,-99.99,,,-99.99,,2013-09-02 07:42:00,
2013-09-02 00:52:00,58.0,56.0,-100.00,North,-999,-999.0,-999.0,93,-99.99,,,-99.99,,2013-09-02 07:52:00,
2013-09-02 01:11:00,58.0,56.0,-100.00,North,-999,-999.0,-999.0,93,-99.99,,,-99.99,,2013-09-02 08:11:00,
2013-09-02 01:22:00,58.0,56.0,-100.00,North,-999,-999.0,-999.0,93,-99.99,,,-99.99,,2013-09-02 08:22:00,
2013-09-02 01:42:00,59.0,56.0,-100.00,North,-999,-999.0,-999.0,92,-99.99,,,-99.99,,2013-09-02 08:42:00,
2013-09-02 01:52:00,59.0,56.0,-100.00,North,-999,-999.0,-999.0,92,-99.99,,,-99.99,,2013-09-02 08:52:00,
2013-09-02 02:12:00,59.0,56.0,-100.00,North,-999,-999.0,-999.0,91,-99.99,,,-99.99,,2013-09-02 09:12:00,
2013-09-02 02:22:00,59.0,57.0,-100.00,North,-999,-999.0,-999.0,91,-99.99,,,-99.99,,2013-09-02 09:22:00,
2013-09-02 02:43:00,59.0,56.0,-100.00,North,-999,-999.0,-999.0,90,-99.99,,,-99.99,,2013-09-02 09:43:00,
2013-09-02 02:53:00,59.0,56.0,-100.00,North,-999,-999.0,-999.0,90,-99.99,,,-99.99,,2013-09-02 09:53:00,
2013-09-02 03:13:00,59.0,56.0,-100.00,North,-999,-999.0,-999.0,90,-99.99,,,-99.99,,2013-09-02 10:13:00,
2013-09-02 03:22:00,59.0,57.0,-100.00,North,-999,-999.0,-999.0,91,-99.99,,,-99.99,,2013-09-02 10:22:00,
2013-09-02 03:42:00,59.0,56.0,-100.00,North,-999,-999.0,-999.0,91,-99.99,,,-99.99,,2013-09-02 10:42:00,
2013-09-02 03:53:00,59.0,57.0,-100.00,North,-999,-999.0,-999.0,91,-99.99,,,-99.99,,2013-09-02 10:53:00,
2013-09-02 04:11:00,59.0,57.0,-100.00,North,-999,-999.0,-999.0,91,-99.99,,,-99.99,,2013-09-02 11:11:00,
2013-09-02 04:22:00,59.0,56.0,-100.00,North,-999,-999.0,-999.0,91,-99.99,,,-99.99,,2013-09-02 11:22:00,
2013-09-02 04:42:00,59.0,56.0,-100.00,North,-999,-999.0,-999.0,90,-99.99,,,-99.99,,2013-09-02 11:42:00,
2013-09-02 04:52:00,59.0,57.0,-100.00,North,-999,-999.0,-999.0,91,-99.99,,,-99.99,,2013-09-02 11:52:00,
2013-09-02 05:12:00,59.0,57.0,-100.00,North,-999,-999.0,-999.0,91,-99.99,,,-99.99,,2013-09-02 12:12:00,
2013-09-02 05:21:00,59.0,57.0,-100.00,North,-999,-999.0,-999.0,91,-99.99,,,-99.99,,2013-09-02 12:21:00,
2013-09-02 05:43:00,59.0,57.0,-100.00,North,-999,-999.0,-999.0,91,-99.99,,,-99.99,,2013-09-02 12:43:00,
2013-09-02 05:52:00,59.0,57.0,-100.00,North,-999,-999.0,-999.0,91,-99.99,,,-99.99,,2013-09-02 12:52:00,
2013-09-02 06:11:00,59.0,57.0,-100.00,North,-999,-999.0,-999.0,92,-99.99,,,-99.99,,2013-09-02 13:11:00,
2013-09-02 06:21:00,59.0,56.0,-100.00,North,-999,-999.0,-999.0,92,-99.99,,,-99.99,,2013-09-02 13:21:00,
2013-09-02 06:42:00,59.0,56.0,-100.00,North,-999,-999.0,-999.0,92,-99.99,,,-99.99,,2013-09-02 13:42:00,
2013-09-02 06:52:00,59.0,56.0,-100.00,North,-999,-999.0,-999.0,92,-99.99,,,-99.99,,2013-09-02 13:52:00,
2013-09-02 07:11:00,59.0,56.0,-100.00,North,-999,-999.0,-999.0,92,-99.99,,,-99.99,,2013-09-02 14:11:00,
2013-09-02 07:22:00,59.0,57.0,-100.00,North,-999,-999.0,-999.0,92,-99.99,,,-99.99,,2013-09-02 14:22:00,
2013-09-02 07:52:00,59.0,56.0,-100.00,North,-999,-999.0,-999.0,92,-99.99,,,-99.99,,2013-09-02 14:52:00,
2013-09-02 08:12:00,59.0,57.0,-100.00,North,-999,-999.0,-999.0,91,-99.99,,,-99.99,,2013-09-02 15:12:00,
2013-09-02 08:23:00,59.0,57.0,-100.00,North,-999,-999.0,-999.0,90,-99.99,,,-99.99,,2013-09-02 15:23:00,
2013-09-02 08:44:00,59.0,57.0,-100.00,North,-999,-999.0,-999.0,91,-99.99,,,-99.99,,2013-09-02 15:44:00,
2013-09-02 08:55:00,59.0,57.0,-100.00,North,-999,-999.0,-999.0,91,-99.99,,,-99.99,,2013-09-02 15:55:00,
2013-09-02 09:14:00,59.0,57.0,-100.00,North,-999,-999.0,-999.0,91,-99.99,,,-99.99,,2013-09-02 16:14:00,
2013-09-02 09:24:00,59.0,57.0,-100.00,North,-999,-999.0,-999.0,91,-99.99,,,-99.99,,2013-09-02 16:24:00,
2013-09-02 09:42:00,60.0,57.0,-100.00,North,-999,-999.0,-999.0,90,-99.99,,,-99.99,,2013-09-02 16:42:00,
2013-09-02 09:53:00,60.0,57.0,-100.00,North,-999,-999.0,-999.0,89,-99.99,,,-99.99,,2013-09-02 16:53:00,
2013-09-02 10:12:00,61.0,57.0,-100.00,North,-999,-999.0,-999.0,87,-99.99,,,-99.99,,2013-09-02 17:12:00,
2013-09-02 10:23:00,62.0,57.0,-100.00,North,-999,-999.0,-999.0,85,-99.99,,,-99.99,,2013-09-02 17:23:00,
2013-09-02 10:44:00,63.0,58.0,-100.00,North,-999,-999.0,-999.0,84,-99.99,,,-99.99,,2013-09-02 17:44:00,
2013-09-02 10:52:00,64.0,58.0,-100.00,North,-999,-999.0,-999.0,81,-99.99,,,-99.99,,2013-09-02 17:52:00,
2013-09-02 11:22:00,70.0,55.0,-100.00,North,-999,-999.0,-999.0,60,-99.99,,,-99.99,,2013-09-02 18:22:00,
2013-09-02 11:42:00,71.0,56.0,-100.00,North,-999,-999.0,-999.0,58,-99.99,,,-99.99,,2013-09-02 18:42:00,
2013-09-02 11:52:00,74.0,56.0,-100.00,North,-999,-999.0,-999.0,53,-99.99,,,-99.99,,2013-09-02 18:52:00,
2013-09-02 12:12:00,74.0,56.0,-100.00,North,-999,-999.0,-999.0,53,-99.99,,,-99.99,,2013-09-02 19:12:00,
2013-09-02 12:22:00,74.0,56.0,-100.00,North,-999,-999.0,-999.0,52,-99.99,,,-99.99,,2013-09-02 19:22:00,
2013-09-02 12:42:00,74.0,56.0,-100.00,North,-999,-999.0,-999.0,54,-99.99,,,-99.99,,2013-09-02 19:42:00,
2013-09-02 12:52:00,76.0,57.0,-100.00,North,-999,-999.0,-999.0,52,-99.99,,,-99.99,,2013-09-02 19:52:00,
2013-09-02 13:12:00,76.0,56.0,-100.00,North,-999,-999.0,-999.0,51,-99.99,,,-99.99,,2013-09-02 20:12:00,
2013-09-02 13:22:00,76.0,59.0,-100.00,North,-999,-999.0,-999.0,56,-99.99,,,-99.99,,2013-09-02 20:22:00,
2013-09-02 13:42:00,74.0,57.0,-100.00,North,-999,-999.0,-999.0,56,-99.99,,,-99.99,,2013-09-02 20:42:00,
2013-09-02 13:52:00,76.0,56.0,-100.00,North,-999,-999.0,-999.0,51,-99.99,,,-99.99,,2013-09-02 20:52:00,
2013-09-02 14:12:00,75.0,57.0,-100.00,North,-999,-999.0,-999.0,53,-99.99,,,-99.99,,2013-09-02 21:12:00,
2013-09-02 14:23:00,75.0,57.0,-100.00,North,-999,-999.0,-999.0,52,-99.99,,,-99.99,,2013-09-02 21:23:00,
2013-09-02 14:44:00,75.0,57.0,-100.00,North,-999,-999.0,-999.0,54,-99.99,,,-99.99,,2013-09-02 21:44:00,
2013-09-02 14:55:00,76.0,56.0,-100.00,North,-999,-999.0,-999.0,51,-99.99,,,-99.99,,2013-09-02 21:55:00,
2013-09-02 15:13:00,76.0,58.0,-100.00,North,-999,-999.0,-999.0,54,-99.99,,,-99.99,,2013-09-02 22:13:00,
2013-09-02 15:23:00,76.0,59.0,-100.00,North,-999,-999.0,-999.0,55,-99.99,,,-99.99,,2013-09-02 22:23:00,
2013-09-02 15:54:00,74.0,57.0,-100.00,North,-999,-999.0,-999.0,56,-99.99,,,-99.99,,2013-09-02 22:54:00,
2013-09-02 16:12:00,75.0,58.0,-100.00,North,-999,-999.0,-999.0,55,-99.99,,,-99.99,,2013-09-02 23:12:00,
2013-09-02 16:22:00,74.0,58.0,-100.00,North,-999,-999.0,-999.0,58,-99.99,,,-99.99,,2013-09-02 23:22:00,
2013-09-02 16:42:00,74.0,59.0,-100.00,North,-999,-999.0,-999.0,58,-99.99,,,-99.99,,2013-09-02 23:42:00,
2013-09-02 16:53:00,73.0,58.0,-100.00,North,-999,-999.0,-999.0,60,-99.99,,,-99.99,,2013-09-02 23:53:00,
2013-09-02 17:11:00,71.0,58.0,-100.00,North,-999,-999.0,-999.0,63,-99.99,,,-99.99,,2013-09-03 00:11:00,
2013-09-02 17:21:00,71.0,58.0,-100.00,North,-999,-999.0,-999.0,63,-99.99,,,-99.99,,2013-09-03 00:21:00,
2013-09-02 17:42:00,71.0,61.0,-100.00,North,-999,-999.0,-999.0,69,-99.99,,,-99.99,,2013-09-03 00:42:00,
2013-09-02 18:11:00,70.0,57.0,-100.00,North,-999,-999.0,-999.0,63,-99.99,,,-99.99,,2013-09-03 01:11:00,
2013-09-02 18:21:00,70.0,60.0,-100.00,North,-999,-999.0,-999.0,70,-99.99,,,-99.99,,2013-09-03 01:21:00,
2013-09-02 18:42:00,68.0,60.0,-100.00,North,-999,-999.0,-999.0,74,-99.99,,,-99.99,,2013-09-03 01:42:00,
2013-09-02 18:52:00,68.0,60.0,-100.00,North,-999,-999.0,-999.0,74,-99.99,,,-99.99,,2013-09-03 01:52:00,
2013-09-02 19:12:00,68.0,60.0,-100.00,North,-999,-999.0,-999.0,77,-99.99,,,-99.99,,2013-09-03 02:12:00,
2013-09-02 19:21:00,67.0,60.0,-100.00,North,-999,-999.0,-999.0,78,-99.99,,,-99.99,,2013-09-03 02:21:00,
2013-09-02 19:42:00,67.0,60.0,-100.00,North,-999,-999.0,-999.0,77,-99.99,,,-99.99,,2013-09-03 02:42:00,
2013-09-02 19:52:00,67.0,60.0,-100.00,North,-999,-999.0,-999.0,78,-99.99,,,-99.99,,2013-09-03 02:52:00,
2013-09-02 20:11:00,68.0,60.0,-100.00,North,-999,-999.0,-999.0,77,-99.99,,,-99.99,,2013-09-03 03:11:00,
2013-09-02 20:23:00,67.0,59.0,-100.00,North,-999,-999.0,-999.0,76,-99.99,,,-99.99,,2013-09-03 03:23:00,
2013-09-02 20:45:00,67.0,60.0,-100.00,North,-999,-999.0,-999.0,78,-99.99,,,-99.99,,2013-09-03 03:45:00,
2013-09-02 20:55:00,66.0,60.0,-100.00,North,-999,-999.0,-999.0,80,-99.99,,,-99.99,,2013-09-03 03:55:00,
2013-09-02 21:13:00,66.0,59.0,-100.00,North,-999,-999.0,-999.0,79,-99.99,,,-99.99,,2013-09-03 04:13:00,
2013-09-02 21:24:00,66.0,60.0,-100.00,North,-999,-999.0,-999.0,80,-99.99,,,-99.99,,2013-09-03 04:24:00,
2013-09-02 21:44:00,66.0,59.0,-100.00,North,-999,-999.0,-999.0,79,-99.99,,,-99.99,,2013-09-03 04:44:00,
2013-09-02 21:53:00,65.0,59.0,-100.00,North,-999,-999.0,-999.0,80,-99.99,,,-99.99,,2013-09-03 04:53:00,
2013-09-02 22:12:00,65.0,59.0,-100.00,North,-999,-999.0,-999.0,81,-99.99,,,-99.99,,2013-09-03 05:12:00,
2013-09-02 22:23:00,65.0,59.0,-100.00,North,-999,-999.0,-999.0,83,-99.99,,,-99.99,,2013-09-03 05:23:00,
2013-09-02 22:43:00,64.0,59.0,-100.00,North,-999,-999.0,-999.0,83,-99.99,,,-99.99,,2013-09-03 05:43:00,
2013-09-02 22:52:00,63.0,58.0,-100.00,North,-999,-999.0,-999.0,84,-99.99,,,-99.99,,2013-09-03 05:52:00,
2013-09-02 23:12:00,63.0,59.0,-100.00,North,-999,-999.0,-999.0,86,-99.99,,,-99.99,,2013-09-03 06:12:00,
2013-09-02 23:22:00,63.0,59.0,-100.00,North,-999,-999.0,-999.0,87,-99.99,,,-99.99,,2013-09-03 06:22:00,
2013-09-02 23:43:00,62.0,59.0,-100.00,North,-999,-999.0,-999.0,88,-99.99,,,-99.99,,2013-09-03 06:43:00,
2013-09-02 23:52:00,62.0,58.0,-100.00,North,-999,-999.0,-999.0,88,-99.99,,,-99.99,,2013-09-03 06:52:00,